{"data":{"norad_id":66940,"epoch":"2026-09-20T11:21:27.787392Z","epoch_age_seconds":86106,"freshness":"FRESH","line1":"1 66940U 25286R   26263.47323828  .00023198  00000+0  69484-3 0  9990","line2":"2 66940  53.1583 169.8288 0001305  86.6608 273.4544 15.34434226 45290","mean_motion":15.34434226,"eccentricity":0.0001305,"inclination_deg":53.1583,"raan_deg":169.8288,"arg_perigee_deg":86.6608,"mean_anomaly_deg":273.4544,"bstar":0.00069484,"rev_number":4529,"period_min":93.845664779899,"perigee_km":461.70879883694,"apogee_km":463.49423158942,"semimajor_km":6840.7385152132,"source":"CELESTRAK","updated_at":"2026-09-21T09:00:36.058863Z"}}